Guam Agana, GU

7:23 AM ChST on September 22, 2019 (GMT +1000)
Guam International

Weather History for PGUM - August, 2019

Change the Weather History Date:

Sunday, August 25, 2019

  Actual Average Record
Temperature  
Mean Temperature 84 °F -  
Max Temperature 87 °F 84 °F 90 °F (2016)
Min Temperature 80 °F 75 °F 73 °F (2007)
Cooling Degree Days 18    
Growing Degree Days 34 (Base 50)    
Moisture  
Dew Point 76 °F    
Average Humidity 78    
Maximum Humidity 87    
Minimum Humidity 69    
Precipitation  
Precipitation 0.00 in - - ()
Sea Level Pressure  
Sea Level Pressure 29.80 in    
Wind  
Wind Speed 9 mph ()    
Max Wind Speed 18 mph    
Max Gust Speed 23 mph    
Visibility 9.9 miles    
Events Rain    
Averages and records for this station are not official NWS values.
T = Trace of Precipitation, MM = Missing Value Source: Averaged Metar Reports

Daily Weather History Graph

Daily Weather History Graph

Search for Another Location

Airport or City:

Astronomy

Aug. 25, 2019 Rise Set
Actual Time 6:09 AM ChST 6:37 PM ChST
Civil Twilight 5:47 AM ChST 6:58 PM ChST
Nautical Twilight 5:21 AM ChST 7:24 PM ChST
Astronomical Twilight 4:56 AM ChST 7:49 PM ChST
Moon 12:39 AM ChST (8/25) 1:47 PM ChST (8/25)
Length of Visible Light 13h 11m
Length of Day
12h 28m
Waning Crescent, 35% of the Moon is Illuminated
Aug 25
Waning Crescent
Aug 30
New
Sep 6
First Quarter
Sep 14
Full
Sep 22
Last Quarter

Hourly Weather History & Observations

Time (ChST) Temp. Heat Index Dew Point Humidity Pressure Visibility Wind Dir Wind Speed Gust Speed Precip Events Conditions
12:18 AM 82.0 °F 89.4 °F 75.9 °F 82% 29.80 in 10.0 mi ESE 10.4 mph - N/A   Scattered Clouds
12:54 AM 82.0 °F 89.4 °F 75.9 °F 82% 29.77 in 10.0 mi ESE 11.5 mph - N/A   Mostly Cloudy
1:07 AM 82.0 °F 89.4 °F 75.9 °F 82% 29.78 in 10.0 mi ESE 9.2 mph - N/A   Partly Cloudy
1:54 AM 82.0 °F 88.6 °F 75.0 °F 79% 29.75 in 10.0 mi ESE 15.0 mph - N/A   Partly Cloudy
2:54 AM 80.1 °F 85.4 °F 75.9 °F 87% 29.74 in 10.0 mi ESE 8.1 mph - 0.00 in   Mostly Cloudy
3:11 AM 81.0 °F 87.3 °F 75.9 °F 85% 29.76 in 10.0 mi Variable 4.6 mph - N/A   Overcast
3:54 AM 81.0 °F 87.3 °F 75.9 °F 85% 29.74 in 10.0 mi SE 11.5 mph - N/A   Mostly Cloudy
4:11 AM 81.0 °F 86.2 °F 73.9 °F 79% 29.77 in 10.0 mi SE 9.2 mph - N/A   Scattered Clouds
4:54 AM 81.0 °F 86.7 °F 75.0 °F 82% 29.75 in 10.0 mi SE 8.1 mph - N/A   Scattered Clouds
5:09 AM 81.0 °F 87.3 °F 75.9 °F 85% 29.77 in 6.0 mi SE 10.4 mph - 0.00 in Rain Light Rain
5:28 AM 81.0 °F 86.7 °F 75.0 °F 82% 29.77 in 10.0 mi SE 9.2 mph 16.1 mph 0.00 in   Scattered Clouds
5:54 AM 81.0 °F 86.7 °F 75.0 °F 82% 29.75 in 10.0 mi SE 8.1 mph - 0.00 in   Partly Cloudy
6:54 AM 81.0 °F 86.7 °F 75.0 °F 82% 29.78 in 10.0 mi SE 8.1 mph 19.6 mph 0.00 in   Partly Cloudy
7:54 AM 82.9 °F 90.8 °F 75.9 °F 79% 29.79 in 10.0 mi SE 9.2 mph - N/A   Partly Cloudy
8:47 AM 84.9 °F 94.1 °F 75.9 °F 74% 29.83 in 10.0 mi SE 11.5 mph 18.4 mph N/A   Mostly Cloudy
8:54 AM 84.9 °F 94.1 °F 75.9 °F 74% 29.81 in 10.0 mi SE 12.7 mph 19.6 mph N/A   Mostly Cloudy
9:36 AM 84.9 °F 95.3 °F 77.0 °F 77% 29.83 in 10.0 mi ESE 11.5 mph - N/A   Scattered Clouds
9:54 AM 84.9 °F 94.1 °F 75.9 °F 74% 29.81 in 8.0 mi SE 15.0 mph 21.9 mph N/A   Scattered Clouds
10:54 AM 86.0 °F 96.9 °F 77.0 °F 74% 29.80 in 10.0 mi SSE 15.0 mph 23.0 mph 0.00 in   Scattered Clouds
11:43 AM 87.1 °F 97.3 °F 75.9 °F 69% 29.81 in 10.0 mi South 18.4 mph 23.0 mph N/A   Mostly Cloudy
11:52 AM 86.0 °F 96.9 °F 77.0 °F 74% 29.81 in 10.0 mi SSE 16.1 mph - N/A   Scattered Clouds
11:54 AM 86.0 °F 96.9 °F 77.0 °F 74% 29.79 in 10.0 mi SSE 13.8 mph - N/A   Scattered Clouds
12:02 PM 86.0 °F 96.0 °F 75.9 °F 72% 29.81 in 10.0 mi SSE 11.5 mph 23.0 mph N/A   Mostly Cloudy
12:09 PM 87.1 °F 98.8 °F 77.0 °F 72% 29.81 in 10.0 mi SE 12.7 mph 20.7 mph N/A   Partly Cloudy
12:54 PM 87.1 °F 98.8 °F 77.0 °F 72% 29.77 in 10.0 mi SSE 15.0 mph - N/A   Scattered Clouds
1:33 PM 87.1 °F 97.3 °F 75.9 °F 69% 29.79 in 10.0 mi SSE 11.5 mph - N/A   Mostly Cloudy
1:54 PM 86.0 °F 96.0 °F 75.9 °F 72% 29.77 in 10.0 mi SSE 12.7 mph 19.6 mph N/A   Scattered Clouds
2:27 PM 86.0 °F 96.0 °F 75.9 °F 72% 29.78 in 10.0 mi SE 10.4 mph 20.7 mph N/A   Mostly Cloudy
2:42 PM 86.0 °F 96.0 °F 75.9 °F 72% 29.78 in 10.0 mi SE 10.4 mph 20.7 mph N/A   Scattered Clouds
2:54 PM 87.1 °F 98.8 °F 77.0 °F 72% 29.76 in 10.0 mi SE 10.4 mph 18.4 mph N/A   Partly Cloudy
3:54 PM 86.0 °F 95.1 °F 75.0 °F 70% 29.76 in 10.0 mi SE 11.5 mph - N/A   Partly Cloudy
4:54 PM 84.9 °F 93.3 °F 75.0 °F 72% 29.76 in 10.0 mi SE 12.7 mph 18.4 mph N/A   Clear
5:54 PM 82.9 °F 89.4 °F 73.9 °F 74% 29.77 in 10.0 mi SE 8.1 mph - N/A   Clear
6:54 PM 82.0 °F 89.4 °F 75.9 °F 82% 29.78 in 10.0 mi ESE 8.1 mph - N/A   Clear
7:54 PM 82.0 °F 89.4 °F 75.9 °F 82% 29.80 in 10.0 mi SE 5.8 mph - N/A   Clear
8:39 PM 82.0 °F 89.4 °F 75.9 °F 82% 29.84 in 10.0 mi ESE 6.9 mph - N/A   Mostly Cloudy
8:54 PM 82.0 °F 89.4 °F 75.9 °F 82% 29.82 in 10.0 mi SE 4.6 mph - N/A   Mostly Cloudy
9:05 PM 82.0 °F 89.4 °F 75.9 °F 82% 29.85 in 10.0 mi SE 4.6 mph - N/A   Scattered Clouds
9:19 PM 82.0 °F 90.2 °F 77.0 °F 85% 29.85 in 10.0 mi SE 3.5 mph - 0.00 in Rain Light Rain
9:34 PM 82.0 °F 90.2 °F 77.0 °F 85% 29.85 in 10.0 mi SE 5.8 mph - 0.00 in   Scattered Clouds
9:54 PM 82.0 °F 89.4 °F 75.9 °F 82% 29.84 in 10.0 mi ESE 6.9 mph - 0.00 in   Mostly Cloudy
10:19 PM 82.0 °F 89.4 °F 75.9 °F 82% 29.87 in 10.0 mi ESE 4.6 mph - N/A   Mostly Cloudy
10:26 PM 82.0 °F 89.4 °F 75.9 °F 82% 29.87 in 10.0 mi SE 4.6 mph - N/A   Scattered Clouds
10:54 PM 82.0 °F 89.4 °F 75.9 °F 82% 29.85 in 10.0 mi SE 6.9 mph - N/A   Partly Cloudy
11:54 PM 81.0 °F 87.3 °F 75.9 °F 85% 29.83 in 10.0 mi ESE 3.5 mph - N/A   Clear